This demonstration page uses our WeatherBlox Daily Observations layout. Learn more.

Left ArrowRight Arrow

Hourly Observations for January 17, 2017

Temp ( °F °C ) Dew Point ( °F °C ) Humidity (%) Winds ( mph kmh ) Pressure ( in mb ) Visibility ( mi km ) Precip ( " mm )
12:43 am 00:43 Cloudy with Mist and Fog 44 6.7 40 4.4 85 85 Calm 30.33 1027 5 8 0.00 0.00
12:59 am 00:59 Cloudy with Mist and Fog 44 6.7 39 3.9 83 83 Calm 30.31 1026 6 10 0.00 0.00
1:59 am 01:59 Cloudy with Mist and Fog 45 7.2 39 3.9 80 80 Calm 30.30 1026 6 10 0.00 0.00
2:59 am 02:59 Cloudy with Mist and Fog 45 7.2 40 4.4 83 83 Calm 30.29 1026 5 8 0.00 0.00
3:59 am 03:59 Cloudy 45 7.2 40 4.4 83 83 SW 3 6 30.28 1025 7 11 0.00 0.00
4:59 am 04:59 Cloudy with Mist and Fog 46 7.8 41 5 83 83 S 3 6 30.26 1025 6 10 0.00 0.00
5:59 am 05:59 Cloudy with Mist and Fog 46 7.8 42 5.6 86 86 SSW 3 6 30.26 1025 5 8 0.00 0.00
6:12 am 06:12 Cloudy with Mist and Fog 46 7.8 42 5.6 86 86 SSW 3 6 30.27 1025 5 8 0.00 0.00
6:59 am 06:59 Cloudy with Mist and Fog 46 7.8 43 6.1 89 89 SW 5 7 30.26 1025 4 6 0.00 0.00
7:59 am 07:59 Cloudy with Mist and Fog 46 7.8 43 6.1 89 89 VRB 3 6 30.26 1025 3 5 0.00 0.00
8:59 am 08:59 Cloudy with Mist and Fog 48 8.9 44 6.7 86 86 S 7 11 30.25 1024 4 6 0.00 0.00
9:59 am 09:59 Cloudy with Mist and Fog 49 9.4 44 6.7 83 83 S 9 15 30.26 1025 6 10 0.00 0.00
10:59 am 10:59 Cloudy 52 11.1 46 7.8 80 80 SSW 8 13 30.23 1024 7 11 0.00 0.00
11:59 am 11:59 Cloudy 54 12.2 48 8.9 80 80 SW 10 17 30.18 1022 7 11 0.00 0.00
12:59 pm 12:59 Cloudy 56 13.3 49 9.4 77 77 SW 12 19 30.15 1021 8 13 0.00 0.00
1:59 pm 13:59 Cloudy 59 15 52 11.1 78 78 SW 10 17 30.12 1020 9 14 0.00 0.00
2:59 pm 14:59 Mostly Cloudy 59 15 52 11.1 78 78 SW 8 13 30.09 1019 9 14 0.00 0.00
3:40 pm 15:40 Mostly Cloudy 59 15 52 11.1 78 78 SSW 10 17 30.09 1019 9 14 0.00 0.00
3:59 pm 15:59 Mostly Cloudy 59 15 52 11.1 78 78 SSW 9 15 30.08 1019 9 14 0.00 0.00
4:59 pm 16:59 Mostly Cloudy 59 15 52 11.1 78 78 SSW 8 13 30.07 1018 9 14 0.00 0.00
5:59 pm 17:59 Mostly Cloudy 59 15 53 11.7 81 81 SW 8 13 30.07 1018 10 16 0.00 0.00
6:59 pm 18:59 Mostly Cloudy N/A N/A N/A undefined N/A N/A 1 2 0.00 0.00
7:59 pm 19:59 Mostly Cloudy 60 15.6 53 11.7 78 78 SSW 10 17 30.05 1018 10 16 0.00 0.00
8:59 pm 20:59 Cloudy 59 15 53 11.7 81 81 SW 12 19 30.05 1018 10 16 0.01 0.25
9:59 pm 21:59 Cloudy 59 15 54 12.2 83 83 SW 8 13 30.02 1017 9 14 0.01 0.25
10:59 pm 22:59 Cloudy 59 15 54 12.2 83 83 SW 8 13 30.00 1016 9 14 0.00 0.00
11:59 pm 23:59 Cloudy 59 15 54 12.2 83 83 SSW 9 15 29.98 1015 9 14 0.00 0.00

Powered by AerisWeather